LOT377 EPWA-EDDF

Flight info

Callsign LOT377
Flight time 1h 31m
Altitude 36000
Route LOLSI DCT DIBLO DCT INDIG DCT KORUP DCT SULED DCT ROBEL/N0435F240 T178 KERAX KERAX5A
Aircraft B38M/M-SDE1FGHILORVWXY/HB1

Departure

Time 2026-05-04 16:03
Airport Warsaw Chopin Airport (EPWA)

Arrival

Time 2026-05-04 17:35
Airport Frankfurt Main Airport (EDDF)
Time Latitude Longitude Altitude Speed Heading
2026-05-04 15:43 52.17047 20.96801 339 ft 0 kts 276°
2026-05-04 15:59 52.17047 20.96791 336 ft 2 kts 276°
2026-05-04 15:59 52.17042 20.96743 339 ft 7 kts 238°
2026-05-04 15:59 52.16983 20.96751 340 ft 11 kts 152°
2026-05-04 16:00 52.16906 20.96818 340 ft 13 kts 152°
2026-05-04 16:00 52.16819 20.96895 339 ft 15 kts 152°
2026-05-04 16:00 52.16720 20.96981 339 ft 17 kts 152°
2026-05-04 16:00 52.16648 20.97110 340 ft 16 kts 115°
2026-05-04 16:01 52.16599 20.97281 339 ft 17 kts 115°
2026-05-04 16:01 52.16548 20.97460 340 ft 18 kts 114°
2026-05-04 16:01 52.16494 20.97655 340 ft 20 kts 115°
2026-05-04 16:01 52.16447 20.97801 338 ft 11 kts 142°
2026-05-04 16:02 52.16376 20.97776 343 ft 12 kts 205°
2026-05-04 16:02 52.16303 20.97704 337 ft 12 kts 249°
2026-05-04 16:02 52.16432 20.97222 336 ft 65 kts 294°
2026-05-04 16:03 52.16710 20.96231 350 ft 125 kts 295°
2026-05-04 16:03 52.17135 20.94699 387 ft 167 kts 291°
2026-05-04 16:03 52.17636 20.92921 933 ft 173 kts 292°
2026-05-04 16:03 52.18140 20.91126 1590 ft 178 kts 289°
2026-05-04 16:04 52.18490 20.89110 2119 ft 189 kts 275°
2026-05-04 16:04 52.18107 20.84376 2870 ft 236 kts 263°
2026-05-04 16:04 52.18273 20.81611 3401 ft 255 kts 281°
2026-05-04 16:05 52.18646 20.78776 4282 ft 256 kts 281°
2026-05-04 16:05 52.19023 20.75949 5122 ft 260 kts 281°
2026-05-04 16:05 52.19540 20.70137 6863 ft 259 kts 259°
2026-05-04 16:06 52.19014 20.67324 7649 ft 262 kts 251°
2026-05-04 16:06 52.17399 20.59718 9794 ft 269 kts 250°
2026-05-04 16:07 52.16551 20.55845 10484 ft 285 kts 249°
2026-05-04 16:07 52.15497 20.45408 11173 ft 347 kts 271°
2026-05-04 16:08 52.15648 20.41392 11416 ft 363 kts 271°
2026-05-04 16:08 52.16148 20.28874 13228 ft 374 kts 271°
2026-05-04 16:09 52.16486 20.20355 14468 ft 380 kts 271°
2026-05-04 16:09 52.16824 20.11700 15758 ft 386 kts 271°
2026-05-04 16:10 52.17162 20.02893 16936 ft 395 kts 272°
2026-05-04 16:11 52.17669 19.89299 18607 ft 406 kts 272°
2026-05-04 16:11 52.17525 19.84771 19087 ft 407 kts 261°
2026-05-04 16:12 52.16299 19.70875 20533 ft 418 kts 261°
2026-05-04 16:12 52.15016 19.56657 21910 ft 428 kts 261°
2026-05-04 16:13 52.14134 19.46993 22807 ft 435 kts 261°
2026-05-04 16:13 52.13230 19.37190 23647 ft 441 kts 261°
2026-05-04 16:14 52.12303 19.27249 24403 ft 446 kts 261°
2026-05-04 16:14 52.11361 19.17229 25187 ft 450 kts 261°
2026-05-04 16:15 52.10080 19.03768 26188 ft 455 kts 261°
2026-05-04 16:16 52.09101 18.93583 26995 ft 455 kts 261°
2026-05-04 16:16 52.07630 18.78473 28482 ft 448 kts 261°
2026-05-04 16:17 52.06649 18.68506 29419 ft 445 kts 261°
2026-05-04 16:18 52.05175 18.53692 30669 ft 441 kts 261°
2026-05-04 16:18 52.04682 18.48785 31059 ft 439 kts 261°
2026-05-04 16:19 52.03207 18.34220 32357 ft 430 kts 261°
2026-05-04 16:19 52.02230 18.24678 33129 ft 427 kts 261°
2026-05-04 16:20 52.00760 18.10451 34149 ft 425 kts 261°
2026-05-04 16:20 51.99773 18.01009 34696 ft 424 kts 260°
2026-05-04 16:21 51.98175 17.86883 35500 ft 424 kts 260°
2026-05-04 16:22 51.97117 17.77560 35943 ft 423 kts 260°
2026-05-04 16:23 51.93889 17.49521 35922 ft 421 kts 259°
2026-05-04 16:25 51.90588 17.21467 35931 ft 423 kts 259°
2026-05-04 16:26 51.86656 16.88829 35927 ft 423 kts 259°
2026-05-04 16:28 51.83790 16.65530 35930 ft 420 kts 259°
2026-05-04 16:29 51.79720 16.33108 35934 ft 421 kts 259°
2026-05-04 16:31 51.76756 16.09979 35934 ft 419 kts 258°
2026-05-04 16:32 51.73150 15.82334 35940 ft 419 kts 258°
2026-05-04 16:33 51.70709 15.63923 35935 ft 420 kts 258°
2026-05-04 16:34 51.68855 15.50094 35940 ft 421 kts 258°
2026-05-04 16:35 51.65105 15.22521 35942 ft 421 kts 258°
2026-05-04 16:36 51.63203 15.08735 35952 ft 419 kts 257°
2026-05-04 16:37 51.61305 14.95077 35945 ft 417 kts 257°
2026-05-04 16:38 51.58753 14.76888 35930 ft 417 kts 257°
2026-05-04 16:39 51.55212 14.54262 35952 ft 418 kts 256°
2026-05-04 16:40 51.52343 14.36153 35947 ft 418 kts 256°
2026-05-04 16:41 51.48724 14.13581 35952 ft 419 kts 256°
2026-05-04 16:43 51.45053 13.90998 35933 ft 419 kts 255°
2026-05-04 16:43 51.42820 13.77408 35951 ft 420 kts 255°
2026-05-04 16:45 51.38301 13.50232 35968 ft 421 kts 255°
2026-05-04 16:46 51.34507 13.27740 35951 ft 420 kts 255°
2026-05-04 16:47 51.31434 13.09734 35959 ft 420 kts 255°
2026-05-04 16:48 51.28323 12.91691 35960 ft 420 kts 254°
2026-05-04 16:49 51.25191 12.73714 35962 ft 420 kts 254°
2026-05-04 16:50 51.22032 12.55761 35961 ft 420 kts 254°
2026-05-04 16:51 51.19646 12.42314 35974 ft 420 kts 253°
2026-05-04 16:52 51.16453 12.24435 35954 ft 419 kts 254°
2026-05-04 16:53 51.14571 12.10809 35955 ft 420 kts 257°
2026-05-04 16:53 51.11571 11.97807 35940 ft 419 kts 246°
2026-05-04 16:54 51.10421 11.93554 35975 ft 420 kts 247°
2026-05-04 16:55 51.03612 11.67851 35958 ft 420 kts 247°
2026-05-04 16:56 50.97925 11.46509 35963 ft 423 kts 246°
2026-05-04 16:57 50.94469 11.33639 35968 ft 422 kts 246°
2026-05-04 16:58 50.89860 11.16579 35966 ft 421 kts 246°
2026-05-04 17:00 50.82902 10.91067 35964 ft 421 kts 246°
2026-05-04 17:01 50.77075 10.69912 35963 ft 421 kts 246°
2026-05-04 17:02 50.72370 10.52970 35969 ft 421 kts 245°
2026-05-04 17:03 50.69223 10.41706 35959 ft 421 kts 245°
2026-05-04 17:03 50.65662 10.29052 35967 ft 421 kts 243°
2026-05-04 17:04 50.60065 10.12856 35952 ft 421 kts 241°
2026-05-04 17:05 50.54510 9.96652 35948 ft 421 kts 244°
2026-05-04 17:06 50.51942 9.83453 35950 ft 422 kts 252°
2026-05-04 17:07 50.49829 9.71640 35944 ft 421 kts 253°
2026-05-04 17:07 50.48030 9.61254 35941 ft 421 kts 253°
2026-05-04 17:08 50.45559 9.47996 35807 ft 419 kts 252°
2026-05-04 17:08 50.44745 9.43668 35564 ft 418 kts 252°
2026-05-04 17:09 50.43921 9.39298 35337 ft 418 kts 252°
2026-05-04 17:09 50.43094 9.34922 35113 ft 418 kts 252°
2026-05-04 17:09 50.42268 9.30558 34881 ft 418 kts 252°
2026-05-04 17:10 50.40480 9.21873 34473 ft 418 kts 249°
2026-05-04 17:10 50.37510 9.09019 33798 ft 418 kts 249°
2026-05-04 17:11 50.36512 9.04732 33549 ft 419 kts 249°
2026-05-04 17:11 50.35496 9.00455 33297 ft 419 kts 248°
2026-05-04 17:11 50.33499 8.91925 32819 ft 420 kts 248°
2026-05-04 17:12 50.32157 8.87920 32452 ft 413 kts 233°
2026-05-04 17:12 50.27598 8.82614 30816 ft 416 kts 200°
2026-05-04 17:13 50.19807 8.85676 28971 ft 414 kts 127°
2026-05-04 17:14 50.21038 8.99117 26119 ft 456 kts 59°
2026-05-04 17:14 50.23010 9.02974 25375 ft 451 kts 41°
2026-05-04 17:14 50.27038 9.10154 23769 ft 436 kts 70°
2026-05-04 17:15 50.27953 9.14626 22865 ft 430 kts 72°
2026-05-04 17:15 50.29925 9.23364 21098 ft 422 kts 71°
2026-05-04 17:16 50.31912 9.31872 19483 ft 411 kts 66°
2026-05-04 17:16 50.38322 9.39678 18083 ft 396 kts
2026-05-04 17:17 50.41036 9.39724 17591 ft 387 kts 347°
2026-05-04 17:17 50.46933 9.32583 16229 ft 359 kts 288°
2026-05-04 17:18 50.47451 9.28804 15746 ft 353 kts 268°
2026-05-04 17:18 50.45879 9.21803 14806 ft 343 kts 227°
2026-05-04 17:19 50.41793 9.18306 13970 ft 338 kts 194°
2026-05-04 17:19 50.37320 9.16599 13410 ft 325 kts 194°
2026-05-04 17:20 50.32960 9.14951 12609 ft 320 kts 194°
2026-05-04 17:20 50.28657 9.13335 11845 ft 316 kts 194°
2026-05-04 17:20 50.26527 9.12556 11494 ft 312 kts 194°
2026-05-04 17:21 50.22481 9.11112 11095 ft 283 kts 194°
2026-05-04 17:21 50.18984 9.09444 10743 ft 249 kts 216°
2026-05-04 17:22 50.17814 9.07520 10340 ft 246 kts 233°
2026-05-04 17:22 50.17015 9.05140 9831 ft 248 kts 244°
2026-05-04 17:23 50.15180 8.97725 8554 ft 231 kts 246°
2026-05-04 17:23 50.14627 8.95424 8155 ft 224 kts 246°
2026-05-04 17:23 50.13552 8.90883 7327 ft 223 kts 250°
2026-05-04 17:24 50.13521 8.88458 6895 ft 230 kts 282°
2026-05-04 17:24 50.17270 8.83924 5679 ft 238 kts 338°
2026-05-04 17:25 50.18817 8.83052 5307 ft 236 kts 339°
2026-05-04 17:25 50.21934 8.81656 4979 ft 233 kts
2026-05-04 17:26 50.24514 8.84278 5003 ft 231 kts 68°
2026-05-04 17:26 50.23764 8.91321 5022 ft 227 kts 114°
2026-05-04 17:27 50.22292 8.95577 4978 ft 220 kts 145°
2026-05-04 17:27 50.19463 8.95940 4992 ft 216 kts 210°
2026-05-04 17:28 50.17196 8.92777 5029 ft 221 kts 224°
2026-05-04 17:29 50.13920 8.87737 5013 ft 221 kts 224°
2026-05-04 17:29 50.11416 8.81998 4445 ft 210 kts 247°
2026-05-04 17:30 50.09985 8.75985 3610 ft 174 kts 249°
2026-05-04 17:31 50.09218 8.72768 3154 ft 153 kts 250°
2026-05-04 17:31 50.08099 8.68084 2493 ft 154 kts 251°
2026-05-04 17:32 50.07356 8.64974 2065 ft 153 kts 251°
2026-05-04 17:33 50.06249 8.60449 1359 ft 147 kts 252°
2026-05-04 17:33 50.05901 8.58937 1161 ft 148 kts 253°
2026-05-04 17:34 50.04857 8.54509 579 ft 144 kts 252°
2026-05-04 17:34 50.04503 8.53041 372 ft 144 kts 254°
2026-05-04 17:35 50.03878 8.50879 327 ft 25 kts 221°
2026-05-04 17:35 50.03784 8.50869 336 ft 3 kts 121°
2026-05-04 17:35 50.03782 8.50929 335 ft 9 kts 76°
2026-05-04 17:36 50.03817 8.51077 334 ft 20 kts 69°
2026-05-04 17:36 50.03875 8.51316 336 ft 26 kts 70°
2026-05-04 17:36 50.03940 8.51589 335 ft 28 kts 69°
2026-05-04 17:36 50.04009 8.51875 340 ft 29 kts 69°
2026-05-04 17:37 50.04079 8.52168 350 ft 29 kts 69°
2026-05-04 17:37 50.04149 8.52460 353 ft 29 kts 70°
2026-05-04 17:37 50.04217 8.52750 360 ft 29 kts 70°
2026-05-04 17:37 50.04288 8.53041 359 ft 29 kts 69°
2026-05-04 17:38 50.04354 8.53316 369 ft 23 kts 69°
2026-05-04 17:38 50.04393 8.53505 377 ft 17 kts 77°
2026-05-04 17:38 50.04407 8.53693 378 ft 19 kts 84°
2026-05-04 17:38 50.04421 8.53905 378 ft 21 kts 85°
2026-05-04 17:39 50.04447 8.54295 377 ft 12 kts 84°
2026-05-04 17:39 50.04454 8.54432 373 ft 12 kts 92°
2026-05-04 17:39 50.04440 8.54546 373 ft 10 kts 109°
2026-05-04 17:40 50.04424 8.54605 369 ft 5 kts 117°
2026-05-04 17:40 50.04415 8.54630 368 ft 0 kts 120°
2026-05-04 17:40 50.04415 8.54631 368 ft 0 kts 120°
2026-05-04 17:41 50.04402 8.54658 367 ft 7 kts 128°
2026-05-04 17:41 50.04355 8.54732 364 ft 11 kts 140°
2026-05-04 17:41 50.04336 8.54751 364 ft 2 kts 151°
2026-05-04 17:41 50.04302 8.54778 360 ft 9 kts 158°
2026-05-04 17:42 50.04248 8.54807 358 ft 6 kts 160°
2026-05-04 17:42 50.04199 8.54834 357 ft 8 kts 160°
2026-05-04 17:42 50.04130 8.54874 357 ft 12 kts 159°
2026-05-04 17:42 50.04044 8.54925 358 ft 14 kts 159°
2026-05-04 17:43 50.03953 8.54978 359 ft 13 kts 159°
2026-05-04 17:43 50.03914 8.55001 357 ft 5 kts 160°
2026-05-04 17:43 50.03866 8.55029 360 ft 10 kts 156°
2026-05-04 17:43 50.03851 8.55128 351 ft 11 kts 70°
2026-05-04 17:44 50.03881 8.55253 357 ft 13 kts 70°
2026-05-04 17:44 50.03916 8.55400 358 ft 16 kts 69°
2026-05-04 17:44 50.03957 8.55568 356 ft 18 kts 69°
2026-05-04 17:44 50.04002 8.55761 356 ft 20 kts 70°
2026-05-04 17:45 50.04052 8.55945 358 ft 17 kts 45°
2026-05-04 17:45 50.04159 8.55934 357 ft 17 kts 339°
2026-05-04 17:45 50.04245 8.55956 361 ft 14 kts 64°
2026-05-04 17:45 50.04293 8.56082 363 ft 14 kts
2026-05-04 17:46 50.04386 8.56030 364 ft 15 kts 338°
2026-05-04 17:46 50.04451 8.56117 361 ft 15 kts 69°
2026-05-04 17:46 50.04473 8.56207 364 ft 12 kts 70°
2026-05-04 17:46 50.04484 8.56253 359 ft 4 kts 69°
2026-05-04 17:47 50.04489 8.56276 360 ft 5 kts 76°
2026-05-04 17:47 50.04479 8.56307 361 ft 5 kts 142°
2026-05-04 17:47 50.04436 8.56327 362 ft 1 kts 167°
2026-05-04 17:48 50.04435 8.56327 362 ft 0 kts 167°